Starlink 5980

operational
NORAD ID: 56326 Int'l Des: 2023-058 Owner: SPXS Country: US Constellation: starlink
LEOCIRCULARRETROGRADESSO

About Starlink 5980

Description loading...

Live Position

Loading 3D Globe...

Upcoming Passes

Altitude History

Altitude vs Time

uPlot chart will show altitude changes over time

Two-Line Element Set

1 56326U 23058K 25302.96461302 -.00000101 00000-0 -33243-5 0 9997
2 56326 97.6033 302.1650 0001435 129.8914 230.2437 15.01258219138160
Epoch: Oct 29, 2025 • Age: 18 hours

Current Status

Altitude 574.9 km
Velocity 7.58 km/s
Sub-Earth Point 75.12°N, 144.46°W
Launch Date Apr 27, 2023
Age 2.5 years
Type internet

Technical Details

Classification Payload
Mass 300.00 kg
Dry Mass 260.00 kg
Total Mass 300.00 kg
Length 0.20 m
Diameter 2.80 m
Span 9.00 m
Shape Box + pan
Manufacturer SPXS
Bus Type Starlink
Phase Status In Orbit
Owner/State SPXS/US

Large Constellations

Loading constellations...